Location: Moscow
(55.7500°N, 37.5830°E)
Time: 16:12:17
(UTC+03:00)

Transit 2A - Pass Details

Date: 04 December 2021
Orbit: 591 x 967 km, 66.7° (Epoch: 17 January)

Event Time Altitude Azimuth Distance (km) Brightness Sun altitude
Rises 08:37:55 0° 316° (NW) 3,645 - -1.0°
Exits shadow 08:38:15 - 316° (NW) 3,524 8.7 -1.0°
Reaches altitude 10° 08:40:29 10° 315° (NW) 2,711 8.2 -0.8°
Maximum altitude 08:46:53 74° 232° (SW) 1,004 6.7 -0.1°
Drops below altitude 10° 08:53:07 10° 148° (SSE) 2,644 10.6 0.6°
Sets 08:55:36 0° 147° (SSE) 3,550 11.5 0.8°
